This demonstration page uses our WeatherBlox Daily Observations layout. Learn more.

Left ArrowRight Arrow

Hourly Observations for August 15, 2022

Temp ( °F °C ) Dew Point ( °F °C ) Humidity (%) Winds ( mph kmh ) Pressure ( in mb ) Visibility ( mi km ) Precip ( " mm )
12:56 am 00:56 Cloudy 71 21.5 61 16 71 71 E 7 11 30.00 1016 10 16 0.00 0.00
1:56 am 01:56 Cloudy 70 21.1 61 16.1 73 73 E 6 9 30.01 1016 10 16 0.00 0.00
2:56 am 02:56 Cloudy 70 20.9 61 15.9 73 73 E 3 6 30.02 1017 10 16 0.00 0.00
3:56 am 03:56 Mostly Cloudy 69 20.6 61 16 75 75 ESE 3 6 30.03 1017 10 16 0.00 0.00
4:56 am 04:56 Mostly Cloudy 70 21 63 17 78 78 Calm 29.98 1015 10 16 0.00 0.00
5:56 am 05:56 Mostly Cloudy 69 20.3 61 16.1 77 77 ESE 10 17 30.01 1016 10 16 0.00 0.00
6:40 am 06:40 Cloudy with Thunderstorms 68 20 61 16 78 78 E 3 6 30.03 1017 10 16 0.00 0.00
6:56 am 06:56 Cloudy with Thunderstorms 68 20 62 16.4 80 80 ENE 7 11 30.04 1017 7 11 0.02 0.51
7:56 am 07:56 Mostly Cloudy with Thunderstorms 66 18.9 63 17.2 90 90 NE 8 13 30.07 1018 7 11 0.21 5.33
8:05 am 08:05 Cloudy with Light Rain 66 19 63 17 88 88 ENE 9 15 30.06 1018 10 16 0.00 0.00
8:56 am 08:56 Mostly Cloudy with Light Showers 67 19.2 63 17.1 88 88 SE 5 7 30.07 1018 9 14 0.01 0.13
9:29 am 09:29 Mostly Cloudy with Thunderstorms 66 19 63 17 88 88 Calm 30.11 1020 1 1 0.00 0.00
9:47 am 09:47 Cloudy with Showers 66 19 63 17 88 88 ESE 12 19 30.05 1018 2 3 0.00 0.00
9:56 am 09:56 Mostly Cloudy with Showers 65 18.6 63 17.3 92 92 ESE 10 17 30.05 1018 5 8 0.42 10.67
10:56 am 10:56 Mostly Cloudy with Light Showers 68 19.8 64 17.6 87 87 ESE 8 13 30.04 1017 10 16 0.01 0.25
11:56 am 11:56 Mostly Cloudy with Light Showers 68 19.8 65 18.1 90 90 ESE 12 19 30.02 1017 10 16 0.02 0.51
12:56 pm 12:56 Mostly Cloudy with Light Showers 69 20.7 65 18.3 86 86 ESE 12 19 30.02 1017 10 16 0.01 0.13
1:32 pm 13:32 Mostly Cloudy 70 21 64 18 83 83 E 8 13 30.04 1017 10 16 0.00 0.00
1:56 pm 13:56 Mostly Cloudy with Light Showers 70 21 64 17.6 81 81 SE 13 20 30.03 1017 10 16 0.01 0.13
2:56 pm 14:56 Mostly Cloudy with Light Showers 70 21.1 64 17.5 80 80 E 8 13 30.02 1017 10 16 0.01 0.13
3:56 pm 15:56 Cloudy with Light Showers 69 20.5 64 17.7 84 84 E 5 7 30.04 1017 10 16 0.02 0.51
4:56 pm 16:56 Cloudy with Light Showers 68 20.2 65 18.1 88 88 E 8 13 30.00 1016 10 16 0.01 0.25
5:56 pm 17:56 Cloudy with Light Showers 68 19.9 62 16.5 81 81 E 9 15 30.06 1018 10 16 0.01 0.13
6:56 pm 18:56 Cloudy with Light Showers 66 19 63 17.1 89 89 E 7 11 30.04 1017 6 10 0.04 1.02
7:31 pm 19:31 Cloudy 66 19 61 16 83 83 E 13 20 30.05 1018 10 16 0.00 0.00
7:56 pm 19:56 Cloudy 65 18.5 61 16.1 86 86 E 9 15 30.05 1018 10 16 0.01 0.25
8:56 pm 20:56 Cloudy 65 18.3 60 15.5 84 84 E 14 22 30.06 1018 10 16 0.00 0.00
9:05 pm 21:05 Cloudy with Light Rain 64 18 61 16 88 88 E 12 19 30.06 1018 10 16 0.00 0.00
9:19 pm 21:19 Cloudy with Thunderstorms 64 18 61 16 88 88 E 8 13 30.06 1018 10 16 0.00 0.00
9:41 pm 21:41 Cloudy with Thunderstorms 64 18 61 16 88 88 E 8 13 30.06 1018 10 16 0.00 0.00
9:56 pm 21:56 Cloudy with Thunderstorms 65 18.1 60 15.7 86 86 E 13 20 30.06 1018 10 16 0.01 0.13
10:56 pm 22:56 Cloudy 65 18.4 61 16 86 86 ESE 14 22 30.07 1018 10 16 0.00 0.00
11:56 pm 23:56 Mostly Cloudy with Mist and Fog 64 17.6 61 16.1 91 91 ESE 14 22 30.07 1018 2 2 0.00 0.00

Powered by AerisWeather